Regional Weather Roundup
Issued by NWS

Home | Current Version | Previous Version | Text Only | Print | Product List | Glossary On
Versions: 1 2 3 4 5 6 7 8 9 10 11 12 13 14 15 16 17 18 19 20 21 22 23 24 25 26 27 28 29 30 31 32 33 34 35 36 37 38 39 40 41 42 43 44 45 46 47 48 49 50
000
ASUS43 KLOT 191410
RWRIL

ILLINOIS REGIONAL WEATHER ROUNDUP
NATIONAL WEATHER SERVICE CHICAGO/ROMEOVILLE IL
800 AM CST FRI DEC 19 2014

NOTE: "FAIR" INDICATES FEW OR NO CLOUDS BELOW 12,000 FEET WITH NO
SIGNIFICANT WEATHER AND/OR OBSTRUCTIONS TO VISIBILITY.

* THESE STATIONS ARE NOT UNDER NWS QUALITY CONTROL. THEY ALSO MAY NOT
  REPORT WEATHER SUCH AS PRECIPITATION OR FOG.

ILZ001-002-007-009-015-016-024-191500-
NORTHWEST ILLINOIS

CITY           SKY/WX    TMP DP  RH WIND       PRES   REMARKS
MOLINE         PTCLDY    15  12  88 CALM      30.32S
STERLING*      CLOUDY    27  19  74 N6        30.31R WCI  20
SAVANNA*       CLOUDY    25  20  82 CALM      30.31S
$$

ILZ003-004-008-010-011-017-018-191500-
NORTH CENTRAL ILLINOIS

CITY           SKY/WX    TMP DP  RH WIND       PRES   REMARKS
ROCKFORD       CLOUDY    27  21  78 NE3       30.32R
FREEPORT*      CLOUDY    25  21  84 N3        30.31S
ROCHELLE*      MOCLDY    25  22  88 N7        30.30R WCI  17
DE KALB*       CLEAR     23  20  88 N6        30.29S WCI  16
PERU*          CLEAR     19  17  92 W3        30.31F FOG
$$

ILZ005-006-012>014-019>023-191500-
NORTHEAST ILLINOIS

CITY           SKY/WX    TMP DP  RH WIND       PRES   REMARKS
CHICAGO-OHARE  CLOUDY    28  21  75 N6        30.29S WCI  22
CHICAGO-MIDWAY CLOUDY    31  23  72 N7        30.29S WCI  24
AURORA         MOCLDY    27  21  78 N6        30.30R WCI  20
LANSING*       CLOUDY    29  24  82 CALM      30.29S
JOLIET*        CLOUDY    26  21  81 CALM      30.30S
WAUKEGAN       CLOUDY    26  21  81 CALM      30.29S
DUPAGE AIRPORT CLOUDY    28  22  78 N3        30.29R
KANKAKEE*      CLOUDY    25  22  89 W5        30.30S WCI  20
WHEELING       CLOUDY    28  21  75 N8        30.31S WCI  20
MORRIS*        CLEAR     18  16  93 CALM      30.29S
ROMEOVILLE*    CLOUDY    28  22  81 N3        30.29S
NORTHERLY ISL    N/A     31  22  69 N3          N/A
$$

LMZ740>746-191500-
SOUTHERN LAKE MICHIGAN

STATION/POSITION SKY/WX   TEMP    WIND        PRES    VSBY  WAVE
                          AIR SEA DIR/SP/G                  HT/PER
                          (F)     (DEG/KT/KT) (MB)    (MI)  (FT/S)
WAUKEGAN HARBOR            27     350/  5/  7   N/A
HARRISON CRIB              30     350/ 10/ 12   N/A
BURNHAM HARBOR             31      10/  5/  7   N/A
CALUMET HARBOR             30     280/  4/  6 1024.4S
$$

ILZ025>027-034>036-040-047-049-050-058-095>099-191500-
WEST-CENTRAL ILLINOIS

CITY           SKY/WX    TMP DP  RH WIND       PRES   REMARKS
QUINCY         CLOUDY    28  24  85 E6        30.30R WCI  22
GALESBURG*     PTCLDY    16  15  93 CALM      30.31S
MACOMB*        CLOUDY    25  23  91 E3        30.32S FOG
JACKSONVILLE*  CLOUDY    31  26  84 E3        30.32R
PITTSFIELD*    CLOUDY    30  26  87 CALM      30.32R
$$

ILZ028>032-037-038-041>044-048-051>054-059>061-191500-
CENTRAL ILLINOIS

CITY           SKY/WX    TMP DP  RH WIND       PRES   REMARKS
PONTIAC        CLEAR     18  16  92 CALM      30.32S FOG
BLOOMINGTON    PTCLDY    20  17  88 NW3       30.31R
DECATUR        CLEAR     20  18  92 S3        30.33R FOG
PEORIA         PTCLDY    20  15  81 CALM      30.32S HAZE
LACON*         PTCLDY    17  14  90 CALM      30.31S FOG
LINCOLN*       CLEAR     19  17  93 CALM      30.35R FOG
SPRINGFIELD    CLOUDY    26  22  84 CALM      30.33R
TAYLORVILLE    CLEAR     27  23  86 E3        30.33R FOG
$$

ILZ033-039-045-046-055>057-062-063-191500-
EAST-CENTRAL ILLINOIS

CITY           SKY/WX    TMP DP  RH WIND       PRES   REMARKS
CHAMPAIGN      FAIR      20  16  84 CALM      30.31R
DANVILLE*      CLEAR     19  17  92 CALM      30.28R FOG
RANTOUL*       CLEAR     21  18  87 NW3       30.31R FOG
MATTOON        CLEAR     22  18  85 CALM      30.32R FOG
PARIS*         CLEAR     22  21  98 CALM      30.33R FOG
$$

ILZ079-100>102-191500-
SOUTHWEST ILLINOIS

CITY           SKY/WX    TMP DP  RH WIND       PRES   REMARKS
ALTON          PTCLDY    28  27  93 CALM      30.31S FOG
BELLEVILLE     CLEAR     26  26  99 CALM      30.32R
CAHOKIA*       CLEAR     30  26  85 CALM      30.33R
SPARTA*        MOCLDY    28  26  93 CALM      30.32R FOG
$$

ILZ064>066-069>071-074>076-080>082-084>086-088>090-092>094-191500-
SOUTH-CENTRAL ILLINOIS

CITY           SKY/WX    TMP DP  RH WIND       PRES   REMARKS
CARBONDALE     CLOUDY    32  25  75 NE5       30.32R WCI  27
CAIRO*         CLOUDY    36  30  80 NE9       30.31R WCI  29
EFFINGHAM*     CLEAR     25  22  90 CALM      30.33F FOG
MARION         CLOUDY    32  28  86 NE6       30.32R FOG     WCI  26
MT. VERNON     CLOUDY    28  21  74 NE3       30.32R
CENTRALIA*     CLEAR     29  24  84 E5        30.32R HAZE    WCI  24
SALEM*         CLEAR     29  26  88 CALM      30.32R FOG
METROPOLIS*    CLOUDY    32  29  90 NE5       30.30S FOG     WCI  27
$$

ILZ067-068-072-073-078-083-087-091-191500-
SOUTHEAST ILLINOIS

CITY           SKY/WX    TMP DP  RH WIND       PRES   REMARKS
LAWRENCEVILLE  CLEAR     27  24  89 N5        30.32S FOG     WCI  22
FLORA*         CLEAR     26  25  96 CALM      30.32F FOG
FAIRFIELD*     CLEAR     27  25  90 CALM      30.32R FOG
HARRISBURG*    CLOUDY    32  28  85 NE5       30.33R WCI  27
ROBINSON*      CLEAR     24  23  94 CALM      30.34S FOG
CARMI*         CLOUDY    31  28  88 N6        30.32R WCI  26
$$

ABBREVIATIONS USED IN REMARKS
   TC - TEMPERATURE IN CELSIUS
  WCI - WIND CHILL INDEX
   HX - HEAT INDEX
  VSB - VISIBILITY
$$




USA.gov is the U.S. government's official web portal to all federal, state and local government web resources and services.